PRIVATE WETTERSTATION BILLIGHEIM-ALLFELD                       ZURCK
Wetterdaten: Montag, 27.03.2017
Datum Zeit Temp. A. Temp. A. min Temp. A. max Feuchte A. Luftdruck Regen Wind Richtung Richtung Sonnenschein ET Solar Taupunkt Windchill Windben Empfang
27.03.2017 00:00 8,4 C 8,4 C 8,6 C 56 % 1023,7 hPa 0,0 l/m 1,6 km/h (1 Bft) O-NO 67 0 min 0,025 mm 0 W/m 0,1 C 8,4 C 9,7 km/h (2 Bft) 100 %
27.03.2017 00:10 8,3 C 8,3 C 8,5 C 56 % 1023,7 hPa 0,0 l/m 0,0 km/h (0 Bft) O 90 0 min 0,000 mm 0 W/m 0,0 C 8,3 C 14,5 km/h (3 Bft) 80 %
27.03.2017 00:20 8,1 C 8,1 C 8,3 C 56 % 1023,7 hPa 0,0 l/m 1,6 km/h (1 Bft) O-NO 67 0 min 0,000 mm 0 W/m -0,1 C 8,1 C 9,7 km/h (2 Bft) 100 %
27.03.2017 00:30 7,9 C 7,9 C 8,1 C 57 % 1023,7 hPa 0,0 l/m 0,0 km/h (0 Bft) O-SO 112 0 min 0,000 mm 0 W/m -0,1 C 7,9 C 6,4 km/h (2 Bft) 100 %
27.03.2017 00:40 7,8 C 7,8 C 7,9 C 57 % 1023,7 hPa 0,0 l/m 0,0 km/h (0 Bft) O-SO 112 0 min 0,000 mm 0 W/m -0,2 C 7,8 C 11,3 km/h (2 Bft) 100 %
27.03.2017 00:50 7,6 C 7,6 C 7,8 C 57 % 1023,7 hPa 0,0 l/m 1,6 km/h (1 Bft) O 90 0 min 0,000 mm 0 W/m -0,4 C 7,6 C 9,7 km/h (2 Bft) 100 %
27.03.2017 01:00 7,5 C 7,5 C 7,6 C 57 % 1023,8 hPa 0,0 l/m 0,0 km/h (0 Bft) O-NO 67 0 min 0,025 mm 0 W/m -0,5 C 7,5 C 6,4 km/h (2 Bft) 100 %
27.03.2017 01:10 7,4 C 7,4 C 7,5 C 57 % 1023,7 hPa 0,0 l/m 1,6 km/h (1 Bft) O 90 0 min 0,000 mm 0 W/m -0,5 C 7,4 C 6,4 km/h (2 Bft) 100 %
27.03.2017 01:20 7,3 C 7,3 C 7,4 C 57 % 1023,9 hPa 0,0 l/m 1,6 km/h (1 Bft) O-NO 67 0 min 0,000 mm 0 W/m -0,6 C 7,3 C 9,7 km/h (2 Bft) 100 %
27.03.2017 01:30 7,3 C 7,3 C 7,3 C 57 % 1023,8 hPa 0,0 l/m 1,6 km/h (1 Bft) O 90 0 min 0,000 mm 0 W/m -0,6 C 7,3 C 9,7 km/h (2 Bft) 100 %
27.03.2017 01:40 7,2 C 7,2 C 7,3 C 57 % 1023,8 hPa 0,0 l/m 1,6 km/h (1 Bft) O 90 0 min 0,000 mm 0 W/m -0,7 C 7,2 C 8,0 km/h (2 Bft) 100 %
27.03.2017 01:50 7,1 C 7,1 C 7,2 C 57 % 1023,6 hPa 0,0 l/m 1,6 km/h (1 Bft) O 90 0 min 0,000 mm 0 W/m -0,8 C 7,1 C 9,7 km/h (2 Bft) 100 %
27.03.2017 02:00 7,0 C 7,0 C 7,1 C 57 % 1023,6 hPa 0,0 l/m 1,6 km/h (1 Bft) O 90 0 min 0,025 mm 0 W/m -0,9 C 7,0 C 9,7 km/h (2 Bft) 100 %
27.03.2017 02:10 7,0 C 6,9 C 7,0 C 57 % 1023,6 hPa 0,0 l/m 1,6 km/h (1 Bft) O-NO 67 0 min 0,000 mm 0 W/m -0,9 C 7,0 C 9,7 km/h (2 Bft) 100 %
27.03.2017 02:20 6,9 C 6,9 C 7,0 C 57 % 1023,6 hPa 0,0 l/m 1,6 km/h (1 Bft) O 90 0 min 0,000 mm 0 W/m -1,0 C 6,9 C 9,7 km/h (2 Bft) 100 %
27.03.2017 02:30 6,9 C 6,9 C 7,0 C 57 % 1023,6 hPa 0,0 l/m 1,6 km/h (1 Bft) O 90 0 min 0,000 mm 0 W/m -1,0 C 6,9 C 6,4 km/h (2 Bft) 100 %
27.03.2017 02:40 6,7 C 6,7 C 6,9 C 58 % 1023,4 hPa 0,0 l/m 0,0 km/h (0 Bft) O-SO 112 0 min 0,000 mm 0 W/m -1,0 C 6,7 C 9,7 km/h (2 Bft) 100 %
27.03.2017 02:50 6,6 C 6,6 C 6,7 C 58 % 1023,4 hPa 0,0 l/m 1,6 km/h (1 Bft) O 90 0 min 0,000 mm 0 W/m -1,1 C 6,6 C 11,3 km/h (2 Bft) 100 %
27.03.2017 03:00 6,5 C 6,5 C 6,6 C 58 % 1023,3 hPa 0,0 l/m 1,6 km/h (1 Bft) O 90 0 min 0,025 mm 0 W/m -1,2 C 6,5 C 9,7 km/h (2 Bft) 100 %
27.03.2017 03:10 6,4 C 6,4 C 6,5 C 59 % 1023,1 hPa 0,0 l/m 1,6 km/h (1 Bft) O 90 0 min 0,000 mm 0 W/m -1,0 C 6,4 C 9,7 km/h (2 Bft) 100 %
27.03.2017 03:20 6,3 C 6,3 C 6,4 C 59 % 1023,3 hPa 0,0 l/m 1,6 km/h (1 Bft) O 90 0 min 0,000 mm 0 W/m -1,1 C 6,3 C 11,3 km/h (2 Bft) 100 %
27.03.2017 03:30 6,2 C 6,2 C 6,3 C 59 % 1023,2 hPa 0,0 l/m 1,6 km/h (1 Bft) O-NO 67 0 min 0,000 mm 0 W/m -1,2 C 6,2 C 8,0 km/h (2 Bft) 100 %
27.03.2017 03:40 6,1 C 6,1 C 6,2 C 59 % 1023,1 hPa 0,0 l/m 1,6 km/h (1 Bft) O-NO 67 0 min 0,000 mm 0 W/m -1,3 C 6,1 C 9,7 km/h (2 Bft) 100 %
27.03.2017 03:50 5,9 C 5,9 C 6,1 C 60 % 1023,1 hPa 0,0 l/m 1,6 km/h (1 Bft) O 90 0 min 0,000 mm 0 W/m -1,3 C 5,9 C 6,4 km/h (2 Bft) 100 %
27.03.2017 04:00 5,7 C 5,7 C 5,9 C 60 % 1023,2 hPa 0,0 l/m 1,6 km/h (1 Bft) O-NO 67 0 min 0,025 mm 0 W/m -1,4 C 5,7 C 8,0 km/h (2 Bft) 99 %
27.03.2017 04:10 5,4 C 5,4 C 5,7 C 61 % 1023,1 hPa 0,0 l/m 1,6 km/h (1 Bft) O 90 0 min 0,000 mm 0 W/m -1,5 C 5,4 C 9,7 km/h (2 Bft) 93 %
27.03.2017 04:20 5,3 C 5,3 C 5,5 C 62 % 1023,1 hPa 0,0 l/m 0,0 km/h (0 Bft) O 90 0 min 0,000 mm 0 W/m -1,4 C 5,3 C 6,4 km/h (2 Bft) 100 %
27.03.2017 04:30 5,0 C 5,0 C 5,3 C 62 % 1023,1 hPa 0,0 l/m 0,0 km/h (0 Bft) O 90 0 min 0,000 mm 0 W/m -1,7 C 5,0 C 9,7 km/h (2 Bft) 100 %
27.03.2017 04:40 4,8 C 4,8 C 4,9 C 64 % 1023,1 hPa 0,0 l/m 0,0 km/h (0 Bft) O-NO 67 0 min 0,000 mm 0 W/m -1,4 C 4,8 C 6,4 km/h (2 Bft) 100 %
27.03.2017 04:50 4,6 C 4,6 C 4,8 C 63 % 1023,1 hPa 0,0 l/m 0,0 km/h (0 Bft) N 0 0 min 0,000 mm 0 W/m -1,8 C 4,6 C 0,0 km/h (0 Bft) 100 %
27.03.2017 05:00 4,4 C 4,4 C 4,6 C 64 % 1023,1 hPa 0,0 l/m 0,0 km/h (0 Bft) O 90 0 min 0,025 mm 0 W/m -1,8 C 4,4 C 1,6 km/h (1 Bft) 100 %
27.03.2017 05:10 4,3 C 4,3 C 4,5 C 63 % 1023,2 hPa 0,0 l/m 0,0 km/h (0 Bft) N 0 0 min 0,000 mm 0 W/m -2,1 C 4,3 C 0,0 km/h (0 Bft) 100 %
27.03.2017 05:20 4,2 C 4,2 C 4,3 C 64 % 1023,1 hPa 0,0 l/m 0,0 km/h (0 Bft) N 0 0 min 0,000 mm 0 W/m -2,0 C 4,2 C 0,0 km/h (0 Bft) 100 %
27.03.2017 05:30 4,0 C 4,0 C 4,2 C 65 % 1023,2 hPa 0,0 l/m 1,6 km/h (1 Bft) O 90 0 min 0,000 mm 0 W/m -2,0 C 4,0 C 4,8 km/h (1 Bft) 100 %
27.03.2017 05:40 3,7 C 3,7 C 4,0 C 66 % 1023,1 hPa 0,0 l/m 0,0 km/h (0 Bft) N 0 0 min 0,000 mm 0 W/m -2,0 C 3,7 C 0,0 km/h (0 Bft) 100 %
27.03.2017 05:50 3,3 C 3,3 C 3,7 C 68 % 1023,2 hPa 0,0 l/m 0,0 km/h (0 Bft) O 90 0 min 0,000 mm 0 W/m -2,0 C 3,3 C 4,8 km/h (1 Bft) 89 %
27.03.2017 06:00 3,1 C 3,1 C 3,3 C 69 % 1023,2 hPa 0,0 l/m 0,0 km/h (0 Bft) O-NO 67 0 min 0,025 mm 0 W/m -2,0 C 3,1 C 4,8 km/h (1 Bft) 98 %
27.03.2017 06:10 2,8 C 2,8 C 3,1 C 70 % 1023,2 hPa 0,0 l/m 0,0 km/h (0 Bft) O-NO 67 0 min 0,000 mm 0 W/m -2,1 C 2,8 C 1,6 km/h (1 Bft) 97 %
27.03.2017 06:20 2,6 C 2,6 C 2,8 C 71 % 1023,2 hPa 0,0 l/m 1,6 km/h (1 Bft) O-NO 67 0 min 0,000 mm 0 W/m -2,1 C 2,6 C 4,8 km/h (1 Bft) 98 %
27.03.2017 06:30 2,3 C 2,3 C 2,6 C 72 % 1023,2 hPa 0,0 l/m 0,0 km/h (0 Bft) O-NO 67 0 min 0,000 mm 0 W/m -2,2 C 2,3 C 4,8 km/h (1 Bft) 97 %
27.03.2017 06:40 2,3 C 2,3 C 2,3 C 71 % 1023,2 hPa 0,0 l/m 0,0 km/h (0 Bft) NO 45 0 min 0,000 mm 0 W/m -2,4 C 2,3 C 6,4 km/h (2 Bft) 97 %
27.03.2017 06:50 2,3 C 2,3 C 2,3 C 72 % 1023,2 hPa 0,0 l/m 0,0 km/h (0 Bft) O 90 0 min 0,000 mm 0 W/m -2,2 C 2,3 C 3,2 km/h (1 Bft) 98 %
27.03.2017 07:00 2,2 C 2,2 C 2,3 C 71 % 1023,3 hPa 0,0 l/m 0,0 km/h (0 Bft) NO 45 0 min 0,000 mm 0 W/m -2,5 C 2,2 C 6,4 km/h (2 Bft) 97 %
27.03.2017 07:10 2,2 C 2,2 C 2,2 C 71 % 1023,4 hPa 0,0 l/m 0,0 km/h (0 Bft) NO 45 0 min 0,000 mm 5 W/m -2,5 C 2,2 C 4,8 km/h (1 Bft) 98 %
27.03.2017 07:20 2,2 C 2,2 C 2,2 C 71 % 1023,4 hPa 0,0 l/m 0,0 km/h (0 Bft) NO 45 0 min 0,000 mm 9 W/m -2,5 C 2,2 C 6,4 km/h (2 Bft) 97 %
27.03.2017 07:30 2,3 C 2,2 C 2,3 C 70 % 1023,4 hPa 0,0 l/m 0,0 km/h (0 Bft) NO 45 0 min 0,000 mm 12 W/m -2,6 C 2,3 C 6,4 km/h (2 Bft) 98 %
27.03.2017 07:40 2,4 C 2,3 C 2,4 C 71 % 1023,5 hPa 0,0 l/m 1,6 km/h (1 Bft) N-NO 22 0 min 0,000 mm 16 W/m -2,3 C 2,4 C 16,1 km/h (3 Bft) 97 %
27.03.2017 07:50 2,3 C 2,3 C 2,4 C 72 % 1023,5 hPa 0,0 l/m 0,0 km/h (0 Bft) NO 45 0 min 0,000 mm 19 W/m -2,2 C 2,3 C 8,0 km/h (2 Bft) 98 %
27.03.2017 08:00 1,8 C 1,8 C 2,3 C 73 % 1023,5 hPa 0,0 l/m 0,0 km/h (0 Bft) NO 45 0 min 0,000 mm 25 W/m -2,5 C 1,8 C 1,6 km/h (1 Bft) 98 %
27.03.2017 08:10 1,5 C 1,5 C 1,8 C 75 % 1023,5 hPa 0,0 l/m 1,6 km/h (1 Bft) N-NW 337 0 min 0,000 mm 25 W/m -2,4 C 1,5 C 6,4 km/h (2 Bft) 97 %
27.03.2017 08:20 1,4 C 1,4 C 1,5 C 75 % 1023,5 hPa 0,0 l/m 1,6 km/h (1 Bft) N-NW 337 0 min 0,000 mm 30 W/m -2,5 C 1,4 C 4,8 km/h (1 Bft) 98 %
27.03.2017 08:30 1,7 C 1,4 C 1,7 C 75 % 1023,5 hPa 0,0 l/m 3,2 km/h (1 Bft) N-NW 337 0 min 0,000 mm 65 W/m -2,2 C 1,7 C 6,4 km/h (2 Bft) 97 %
27.03.2017 08:40 2,1 C 1,7 C 2,1 C 76 % 1023,6 hPa 0,0 l/m 1,6 km/h (1 Bft) N-NW 337 10 min 0,000 mm 213 W/m -1,7 C 2,1 C 6,4 km/h (2 Bft) 98 %
27.03.2017 08:50 2,9 C 2,1 C 2,9 C 74 % 1023,6 hPa 0,0 l/m 0,0 km/h (0 Bft) N-NW 337 10 min 0,000 mm 251 W/m -1,3 C 2,9 C 6,4 km/h (2 Bft) 97 %
27.03.2017 09:00 4,0 C 2,9 C 4,0 C 71 % 1023,6 hPa 0,0 l/m 0,0 km/h (0 Bft) N-NW 337 10 min 0,051 mm 287 W/m -0,8 C 4,0 C 4,8 km/h (1 Bft) 96 %
27.03.2017 09:10 5,1 C 4,0 C 5,1 C 68 % 1023,6 hPa 0,0 l/m 0,0 km/h (0 Bft) N-NW 337 10 min 0,000 mm 316 W/m -0,3 C 5,1 C 4,8 km/h (1 Bft) 89 %
27.03.2017 09:20 6,2 C 5,1 C 6,2 C 65 % 1023,7 hPa 0,0 l/m 0,0 km/h (0 Bft) N 0 10 min 0,000 mm 345 W/m 0,1 C 6,2 C 0,0 km/h (0 Bft) 97 %
27.03.2017 09:30 7,2 C 6,3 C 7,2 C 61 % 1023,7 hPa 0,0 l/m 1,6 km/h (1 Bft) NO 45 10 min 0,000 mm 369 W/m 0,2 C 7,2 C 6,4 km/h (2 Bft) 98 %
27.03.2017 09:40 7,8 C 7,2 C 7,8 C 59 % 1023,8 hPa 0,0 l/m 0,0 km/h (0 Bft) N-NO 22 10 min 0,000 mm 399 W/m 0,3 C 7,8 C 8,0 km/h (2 Bft) 97 %
27.03.2017 09:50 8,5 C 7,9 C 8,5 C 57 % 1023,6 hPa 0,0 l/m 0,0 km/h (0 Bft) N-NO 22 10 min 0,000 mm 424 W/m 0,5 C 8,5 C 8,0 km/h (2 Bft) 98 %
27.03.2017 10:00 8,9 C 8,5 C 8,9 C 57 % 1023,6 hPa 0,0 l/m 0,0 km/h (0 Bft) N-NO 22 10 min 0,152 mm 450 W/m 0,9 C 8,9 C 4,8 km/h (1 Bft) 97 %
27.03.2017 10:10 9,2 C 8,9 C 9,2 C 55 % 1023,7 hPa 0,0 l/m 0,0 km/h (0 Bft) N-NO 22 10 min 0,000 mm 485 W/m 0,6 C 9,2 C 8,0 km/h (2 Bft) 98 %
27.03.2017 10:20 9,7 C 9,2 C 9,7 C 55 % 1023,6 hPa 0,0 l/m 0,0 km/h (0 Bft) N 0 10 min 0,000 mm 510 W/m 1,1 C 9,7 C 0,0 km/h (0 Bft) 98 %
27.03.2017 10:30 10,4 C 9,7 C 10,4 C 52 % 1023,7 hPa 0,0 l/m 0,0 km/h (0 Bft) O 90 10 min 0,000 mm 533 W/m 1,0 C 10,4 C 6,4 km/h (2 Bft) 97 %
27.03.2017 10:40 10,8 C 10,4 C 10,8 C 49 % 1023,7 hPa 0,0 l/m 1,6 km/h (1 Bft) SO 135 10 min 0,000 mm 555 W/m 0,5 C 10,8 C 8,0 km/h (2 Bft) 98 %
27.03.2017 11:00 11,6 C 10,4 C 11,6 C 50 % 1023,6 hPa 0,0 l/m 0,3 km/h (0 Bft) O 89 20 min 0,232 mm 598 W/m 1,5 C 11,6 C 6,4 km/h (2 Bft) 100 %
27.03.2017 11:10 11,8 C 11,6 C 11,8 C 46 % 1023,6 hPa 0,0 l/m 1,9 km/h (1 Bft) O 86 10 min 0,000 mm 617 W/m 0,6 C 11,8 C 16,1 km/h (3 Bft) 99 %
27.03.2017 11:20 12,0 C 11,7 C 12,0 C 45 % 1023,7 hPa 0,0 l/m 1,7 km/h (1 Bft) N 350 10 min 0,000 mm 636 W/m 0,4 C 12,0 C 14,5 km/h (3 Bft) 100 %
27.03.2017 11:30 12,6 C 12,0 C 12,6 C 41 % 1023,7 hPa 0,0 l/m 0,6 km/h (0 Bft) O-SO 104 10 min 0,000 mm 656 W/m -0,3 C 12,6 C 11,3 km/h (2 Bft) 100 %
27.03.2017 11:40 12,8 C 12,6 C 12,8 C 39 % 1023,8 hPa 0,0 l/m 2,5 km/h (1 Bft) O-SO 103 10 min 0,000 mm 671 W/m -0,8 C 12,8 C 17,7 km/h (3 Bft) 100 %
27.03.2017 11:50 13,1 C 12,7 C 13,1 C 41 % 1023,7 hPa 0,0 l/m 0,5 km/h (0 Bft) SO 141 10 min 0,000 mm 687 W/m 0,2 C 13,1 C 8,0 km/h (2 Bft) 100 %
27.03.2017 12:00 12,8 C 12,8 C 13,1 C 41 % 1023,6 hPa 0,0 l/m 5,5 km/h (1 Bft) O-SO 122 10 min 0,330 mm 696 W/m -0,1 C 12,8 C 17,7 km/h (3 Bft) 100 %
27.03.2017 12:10 13,1 C 12,8 C 13,1 C 42 % 1023,6 hPa 0,0 l/m 1,6 km/h (1 Bft) O-SO 123 10 min 0,000 mm 714 W/m 0,5 C 13,1 C 14,5 km/h (3 Bft) 100 %
27.03.2017 12:20 13,3 C 13,1 C 13,4 C 39 % 1023,7 hPa 0,0 l/m 2,2 km/h (1 Bft) O 83 10 min 0,000 mm 721 W/m -0,4 C 13,3 C 12,9 km/h (3 Bft) 100 %
27.03.2017 12:30 13,5 C 13,3 C 13,6 C 39 % 1023,4 hPa 0,0 l/m 5,3 km/h (1 Bft) O-SO 113 10 min 0,000 mm 733 W/m -0,2 C 13,5 C 19,3 km/h (3 Bft) 100 %
27.03.2017 12:40 13,8 C 13,5 C 13,8 C 41 % 1023,5 hPa 0,0 l/m 1,6 km/h (1 Bft) O 94 10 min 0,000 mm 733 W/m 0,8 C 13,8 C 11,3 km/h (2 Bft) 100 %
27.03.2017 12:50 14,3 C 13,8 C 14,3 C 38 % 1023,3 hPa 0,0 l/m 1,7 km/h (1 Bft) O 98 10 min 0,000 mm 745 W/m 0,2 C 14,3 C 14,5 km/h (3 Bft) 100 %
27.03.2017 13:00 14,7 C 14,3 C 14,7 C 39 % 1023,3 hPa 0,0 l/m 1,4 km/h (1 Bft) N 355 10 min 0,381 mm 751 W/m 0,9 C 14,7 C 14,5 km/h (3 Bft) 100 %
27.03.2017 13:10 14,9 C 14,7 C 14,9 C 37 % 1023,3 hPa 0,0 l/m 2,3 km/h (1 Bft) O 95 10 min 0,000 mm 749 W/m 0,3 C 14,9 C 16,1 km/h (3 Bft) 100 %
27.03.2017 13:20 15,1 C 14,9 C 15,1 C 37 % 1023,2 hPa 0,0 l/m 0,3 km/h (0 Bft) O 80 10 min 0,000 mm 754 W/m 0,5 C 15,1 C 4,8 km/h (1 Bft) 100 %
27.03.2017 13:30 15,3 C 15,1 C 15,3 C 36 % 1023,2 hPa 0,0 l/m 3,0 km/h (1 Bft) O 91 10 min 0,000 mm 742 W/m 0,3 C 15,3 C 14,5 km/h (3 Bft) 100 %
27.03.2017 13:40 15,5 C 15,3 C 15,5 C 38 % 1023,2 hPa 0,0 l/m 1,1 km/h (1 Bft) O-SO 111 10 min 0,000 mm 751 W/m 1,3 C 15,5 C 11,3 km/h (2 Bft) 99 %
27.03.2017 13:50 15,4 C 15,4 C 15,7 C 36 % 1023,0 hPa 0,0 l/m 2,6 km/h (1 Bft) O-SO 106 10 min 0,000 mm 747 W/m 0,4 C 15,4 C 16,1 km/h (3 Bft) 100 %
27.03.2017 14:00 15,7 C 15,4 C 15,7 C 38 % 1023,0 hPa 0,0 l/m 1,3 km/h (1 Bft) O 84 10 min 0,406 mm 742 W/m 1,4 C 15,7 C 11,3 km/h (2 Bft) 100 %
27.03.2017 14:10 16,1 C 15,7 C 16,1 C 36 % 1022,8 hPa 0,0 l/m 2,9 km/h (1 Bft) S-SO 148 10 min 0,000 mm 737 W/m 1,0 C 16,1 C 12,9 km/h (3 Bft) 100 %
27.03.2017 14:20 16,1 C 16,0 C 16,1 C 34 % 1022,8 hPa 0,0 l/m 2,9 km/h (1 Bft) SO 130 10 min 0,000 mm 729 W/m 0,2 C 16,1 C 11,3 km/h (2 Bft) 100 %
27.03.2017 14:30 16,2 C 16,1 C 16,2 C 36 % 1022,6 hPa 0,0 l/m 3,8 km/h (1 Bft) O-SO 111 10 min 0,000 mm 721 W/m 1,1 C 16,2 C 20,9 km/h (4 Bft) 100 %
27.03.2017 14:40 16,4 C 16,2 C 16,4 C 35 % 1022,3 hPa 0,0 l/m 0,6 km/h (0 Bft) SW 223 10 min 0,000 mm 714 W/m 0,9 C 16,4 C 11,3 km/h (2 Bft) 100 %
27.03.2017 14:50 16,9 C 16,4 C 16,9 C 32 % 1022,1 hPa 0,0 l/m 0,4 km/h (0 Bft) O-NO 64 10 min 0,000 mm 701 W/m 0,1 C 16,9 C 9,7 km/h (2 Bft) 100 %
27.03.2017 15:00 17,2 C 16,9 C 17,2 C 32 % 1022,0 hPa 0,0 l/m 0,2 km/h (0 Bft) NW 304 10 min 0,407 mm 689 W/m 0,4 C 17,2 C 6,4 km/h (2 Bft) 100 %
27.03.2017 15:10 17,2 C 17,1 C 17,3 C 32 % 1021,9 hPa 0,0 l/m 2,1 km/h (1 Bft) O-SO 121 10 min 0,000 mm 675 W/m 0,4 C 17,2 C 17,7 km/h (3 Bft) 100 %
27.03.2017 15:20 17,3 C 17,2 C 17,3 C 32 % 1021,9 hPa 0,0 l/m 3,5 km/h (1 Bft) O 86 10 min 0,000 mm 661 W/m 0,5 C 17,3 C 17,7 km/h (3 Bft) 100 %
27.03.2017 15:30 17,6 C 17,3 C 17,6 C 32 % 1021,8 hPa 0,0 l/m 2,4 km/h (1 Bft) SO 131 10 min 0,000 mm 643 W/m 0,7 C 17,6 C 17,7 km/h (3 Bft) 100 %
27.03.2017 15:40 17,6 C 17,6 C 17,7 C 30 % 1021,7 hPa 0,0 l/m 2,5 km/h (1 Bft) O-SO 103 10 min 0,000 mm 629 W/m -0,2 C 17,6 C 17,7 km/h (3 Bft) 100 %
27.03.2017 15:50 17,5 C 17,4 C 17,6 C 34 % 1021,6 hPa 0,0 l/m 2,7 km/h (1 Bft) S-SO 149 0 min 0,000 mm 49 W/m 1,5 C 17,5 C 17,7 km/h (3 Bft) 100 %
27.03.2017 16:00 17,9 C 17,5 C 17,9 C 33 % 1021,4 hPa 0,0 l/m 0,9 km/h (0 Bft) NO 54 0 min 0,279 mm 40 W/m 1,4 C 17,9 C 16,1 km/h (3 Bft) 100 %
27.03.2017 16:10 18,0 C 17,9 C 18,0 C 30 % 1021,4 hPa 0,0 l/m 1,5 km/h (1 Bft) O-NO 72 0 min 0,000 mm 40 W/m 0,2 C 18,0 C 9,7 km/h (2 Bft) 100 %
27.03.2017 16:20 17,8 C 17,8 C 18,0 C 33 % 1021,3 hPa 0,0 l/m 1,2 km/h (1 Bft) O 92 0 min 0,000 mm 39 W/m 1,3 C 17,8 C 11,3 km/h (2 Bft) 100 %
27.03.2017 16:30 17,9 C 17,8 C 17,9 C 32 % 1021,3 hPa 0,0 l/m 0,3 km/h (0 Bft) O 89 0 min 0,000 mm 39 W/m 1,0 C 17,9 C 4,8 km/h (1 Bft) 100 %
27.03.2017 16:40 18,1 C 17,9 C 18,1 C 30 % 1021,2 hPa 0,0 l/m 2,2 km/h (1 Bft) O-NO 76 0 min 0,000 mm 37 W/m 0,3 C 18,1 C 14,5 km/h (3 Bft) 100 %
27.03.2017 16:50 17,9 C 17,9 C 18,1 C 30 % 1021,0 hPa 0,0 l/m 2,4 km/h (1 Bft) N 355 0 min 0,000 mm 37 W/m 0,1 C 17,9 C 11,3 km/h (2 Bft) 100 %
27.03.2017 17:00 18,0 C 17,9 C 18,0 C 28 % 1021,0 hPa 0,0 l/m 2,0 km/h (1 Bft) O 99 0 min 0,051 mm 37 W/m -0,8 C 18,0 C 11,3 km/h (2 Bft) 100 %
27.03.2017 17:10 18,1 C 18,0 C 18,1 C 28 % 1020,8 hPa 0,0 l/m 1,0 km/h (0 Bft) O-NO 78 0 min 0,000 mm 35 W/m -0,7 C 18,1 C 8,0 km/h (2 Bft) 100 %
27.03.2017 17:20 17,9 C 17,9 C 18,1 C 27 % 1020,8 hPa 0,0 l/m 3,6 km/h (1 Bft) SO 132 0 min 0,000 mm 35 W/m -1,4 C 17,9 C 14,5 km/h (3 Bft) 100 %
27.03.2017 17:30 17,9 C 17,9 C 17,9 C 27 % 1020,9 hPa 0,0 l/m 3,3 km/h (1 Bft) SO 129 0 min 0,000 mm 33 W/m -1,4 C 17,9 C 16,1 km/h (3 Bft) 100 %
27.03.2017 17:40 17,8 C 17,8 C 17,9 C 28 % 1020,7 hPa 0,0 l/m 2,1 km/h (1 Bft) O-NO 76 0 min 0,000 mm 33 W/m -0,9 C 17,8 C 17,7 km/h (3 Bft) 100 %
27.03.2017 17:50 18,0 C 17,8 C 18,0 C 29 % 1020,7 hPa 0,0 l/m 0,2 km/h (0 Bft) S-SO 154 0 min 0,000 mm 32 W/m -0,3 C 18,0 C 6,4 km/h (2 Bft) 100 %
27.03.2017 18:00 17,9 C 17,9 C 18,0 C 29 % 1020,8 hPa 0,0 l/m 1,6 km/h (1 Bft) O-SO 117 0 min 0,000 mm 30 W/m -0,4 C 17,9 C 16,1 km/h (3 Bft) 100 %
27.03.2017 18:10 17,7 C 17,7 C 17,9 C 28 % 1020,8 hPa 0,0 l/m 0,6 km/h (0 Bft) O-SO 113 0 min 0,051 mm 30 W/m -1,0 C 17,7 C 8,0 km/h (2 Bft) 100 %
27.03.2017 18:20 17,7 C 17,7 C 17,8 C 29 % 1020,8 hPa 0,0 l/m 2,2 km/h (1 Bft) O 94 0 min 0,000 mm 28 W/m -0,6 C 17,7 C 17,7 km/h (3 Bft) 100 %
27.03.2017 18:30 17,6 C 17,6 C 17,7 C 28 % 1020,8 hPa 0,0 l/m 0,8 km/h (0 Bft) O 90 0 min 0,000 mm 25 W/m -1,1 C 17,6 C 8,0 km/h (2 Bft) 100 %
27.03.2017 18:40 17,4 C 17,4 C 17,6 C 27 % 1020,8 hPa 0,0 l/m 0,8 km/h (0 Bft) O-SO 103 0 min 0,000 mm 25 W/m -1,8 C 17,4 C 11,3 km/h (2 Bft) 100 %
27.03.2017 18:50 17,4 C 17,4 C 17,5 C 27 % 1020,8 hPa 0,0 l/m 0,7 km/h (0 Bft) O-SO 123 0 min 0,000 mm 21 W/m -1,8 C 17,4 C 9,7 km/h (2 Bft) 100 %
27.03.2017 19:00 17,2 C 17,2 C 17,4 C 27 % 1020,9 hPa 0,0 l/m 0,0 km/h (0 Bft) O 94 0 min 0,000 mm 19 W/m -2,0 C 17,2 C 0,0 km/h (0 Bft) 100 %
27.03.2017 19:10 17,0 C 17,0 C 17,2 C 30 % 1020,9 hPa 0,0 l/m 0,2 km/h (0 Bft) O-SO 104 0 min 0,025 mm 18 W/m -0,7 C 17,0 C 6,4 km/h (2 Bft) 100 %
27.03.2017 19:20 16,7 C 16,7 C 17,0 C 29 % 1020,9 hPa 0,0 l/m 0,0 km/h (0 Bft) O-SO 120 0 min 0,000 mm 14 W/m -1,4 C 16,7 C 1,6 km/h (1 Bft) 100 %
27.03.2017 19:30 16,4 C 16,4 C 16,7 C 29 % 1021,0 hPa 0,0 l/m 0,0 km/h (0 Bft) O-SO 121 0 min 0,000 mm 11 W/m -1,7 C 16,4 C 1,6 km/h (1 Bft) 100 %
27.03.2017 19:40 16,1 C 16,1 C 16,4 C 29 % 1020,9 hPa 0,0 l/m 0,0 km/h (0 Bft) O-SO 117 0 min 0,000 mm 5 W/m -1,9 C 16,1 C 0,0 km/h (0 Bft) 100 %
27.03.2017 19:50 15,7 C 15,7 C 16,1 C 30 % 1020,9 hPa 0,0 l/m 0,0 km/h (0 Bft) O-SO 117 0 min 0,000 mm 0 W/m -1,8 C 15,7 C 0,0 km/h (0 Bft) 99 %
27.03.2017 20:00 15,2 C 15,2 C 15,7 C 31 % 1020,9 hPa 0,0 l/m 0,0 km/h (0 Bft) O-SO 115 0 min 0,025 mm 0 W/m -1,8 C 15,2 C 1,6 km/h (1 Bft) 100 %
27.03.2017 20:10 15,1 C 15,1 C 15,2 C 30 % 1020,9 hPa 0,0 l/m 0,0 km/h (0 Bft) O-SO 107 0 min 0,000 mm 0 W/m -2,3 C 15,1 C 0,0 km/h (0 Bft) 99 %
27.03.2017 20:20 14,6 C 14,6 C 15,1 C 31 % 1020,8 hPa 0,0 l/m 0,0 km/h (0 Bft) O-SO 105 0 min 0,000 mm 0 W/m -2,3 C 14,6 C 1,6 km/h (1 Bft) 100 %
27.03.2017 20:30 14,3 C 14,3 C 14,6 C 30 % 1021,0 hPa 0,0 l/m 0,0 km/h (0 Bft) O-SO 105 0 min 0,000 mm 0 W/m -3,0 C 14,3 C 1,6 km/h (1 Bft) 100 %
27.03.2017 20:40 14,2 C 14,2 C 14,3 C 31 % 1021,2 hPa 0,0 l/m 0,0 km/h (0 Bft) O-SO 105 0 min 0,000 mm 0 W/m -2,7 C 14,2 C 0,0 km/h (0 Bft) 100 %
27.03.2017 20:50 13,9 C 13,9 C 14,2 C 32 % 1021,2 hPa 0,0 l/m 0,0 km/h (0 Bft) O-SO 105 0 min 0,000 mm 0 W/m -2,5 C 13,9 C 0,0 km/h (0 Bft) 100 %
27.03.2017 21:00 13,8 C 13,8 C 13,9 C 32 % 1021,2 hPa 0,0 l/m 0,1 km/h (0 Bft) O-SO 105 0 min 0,051 mm 0 W/m -2,6 C 13,8 C 4,8 km/h (1 Bft) 98 %
27.03.2017 21:10 13,6 C 13,6 C 13,8 C 33 % 1021,2 hPa 0,0 l/m 0,0 km/h (0 Bft) O 90 0 min 0,000 mm 0 W/m -2,4 C 13,6 C 6,4 km/h (2 Bft) 100 %
27.03.2017 21:20 13,4 C 13,4 C 13,6 C 34 % 1021,3 hPa 0,0 l/m 0,0 km/h (0 Bft) N 0 0 min 0,000 mm 0 W/m -2,1 C 13,4 C 0,0 km/h (0 Bft) 100 %
27.03.2017 21:30 12,3 C 12,3 C 13,4 C 38 % 1021,4 hPa 0,0 l/m 0,0 km/h (0 Bft) N 0 0 min 0,000 mm 0 W/m -1,6 C 12,3 C 0,0 km/h (0 Bft) 100 %
27.03.2017 21:40 11,9 C 11,8 C 12,2 C 39 % 1021,4 hPa 0,0 l/m 0,0 km/h (0 Bft) N 0 0 min 0,000 mm 0 W/m -1,6 C 11,9 C 0,0 km/h (0 Bft) 100 %
27.03.2017 21:50 12,1 C 11,9 C 12,2 C 46 % 1021,5 hPa 0,0 l/m 0,0 km/h (0 Bft) O 90 0 min 0,000 mm 0 W/m 0,8 C 12,1 C 6,4 km/h (2 Bft) 100 %
27.03.2017 22:00 11,1 C 11,1 C 12,1 C 44 % 1021,5 hPa 0,0 l/m 0,0 km/h (0 Bft) O 90 0 min 0,051 mm 0 W/m -0,7 C 11,1 C 1,6 km/h (1 Bft) 100 %
27.03.2017 22:10 11,0 C 10,9 C 11,1 C 47 % 1021,6 hPa 0,0 l/m 0,0 km/h (0 Bft) O-SO 112 0 min 0,000 mm 0 W/m 0,1 C 11,0 C 6,4 km/h (2 Bft) 100 %
27.03.2017 22:20 10,1 C 10,1 C 11,0 C 52 % 1021,6 hPa 0,0 l/m 1,6 km/h (1 Bft) N 360 0 min 0,000 mm 0 W/m 0,7 C 10,1 C 6,4 km/h (2 Bft) 100 %
27.03.2017 22:30 8,9 C 8,9 C 10,1 C 55 % 1021,7 hPa 0,0 l/m 0,0 km/h (0 Bft) N 0 0 min 0,000 mm 0 W/m 0,4 C 8,9 C 0,0 km/h (0 Bft) 100 %
27.03.2017 22:40 8,4 C 8,4 C 8,8 C 50 % 1021,6 hPa 0,0 l/m 0,0 km/h (0 Bft) O 90 0 min 0,000 mm 0 W/m -1,4 C 8,4 C 4,8 km/h (1 Bft) 100 %
27.03.2017 22:50 9,1 C 8,4 C 9,1 C 48 % 1021,7 hPa 0,0 l/m 0,0 km/h (0 Bft) O 90 0 min 0,000 mm 0 W/m -1,3 C 9,1 C 4,8 km/h (1 Bft) 100 %
27.03.2017 23:00 9,7 C 9,1 C 9,7 C 48 % 1021,6 hPa 0,0 l/m 0,0 km/h (0 Bft) O-SO 112 0 min 0,025 mm 0 W/m -0,8 C 9,7 C 4,8 km/h (1 Bft) 100 %
27.03.2017 23:10 9,6 C 9,6 C 9,8 C 51 % 1021,6 hPa 0,0 l/m 0,0 km/h (0 Bft) O 90 0 min 0,000 mm 0 W/m -0,0 C 9,6 C 4,8 km/h (1 Bft) 100 %
27.03.2017 23:20 9,0 C 9,0 C 9,6 C 50 % 1021,6 hPa 0,0 l/m 0,0 km/h (0 Bft) O 90 0 min 0,000 mm 0 W/m -0,9 C 9,0 C 6,4 km/h (2 Bft) 100 %
27.03.2017 23:30 9,6 C 9,0 C 9,6 C 47 % 1021,6 hPa 0,0 l/m 1,6 km/h (1 Bft) O 90 0 min 0,000 mm 0 W/m -1,1 C 9,6 C 9,7 km/h (2 Bft) 100 %
27.03.2017 23:40 8,8 C 8,8 C 9,7 C 54 % 1021,7 hPa 0,0 l/m 1,6 km/h (1 Bft) N 360 0 min 0,000 mm 0 W/m 0,0 C 8,8 C 6,4 km/h (2 Bft) 100 %
27.03.2017 23:50 8,3 C 8,2 C 8,7 C 49 % 1021,7 hPa 0,0 l/m 0,0 km/h (0 Bft) N 0 0 min 0,000 mm 0 W/m -1,8 C 8,3 C 0,0 km/h (0 Bft) 100 %
_ Min-Zeit 08:20 08:20 08:20 17:20 17:40 - 00:10 - - - - - 20:30 08:20 04:50 00:10
Minimum _ 1,4 C 1,4 C 1,5 C 27 % 1020,7 hPa - 0,0 km/h (0 Bft) - - - - - -3,0 C 1,4 C 0,0 km/h (0 Bft) 80 %
_ Max-Zeit 16:40 17:10 16:40 08:40 01:20 00:00 12:00 - - 11:00 15:00 13:20 11:00 16:40 14:30 00:30
Maximum _ 18,1 C 18,0 C 18,1 C 76 % 1023,9 hPa 0,0 l/m 5,5 km/h
O-SO (1 Bft)
- - 20 min 0,407 mm 754 W/m 1,5 C 18,1 C 20,9 km/h
SO (4 Bft)
100 %
Durchschnitt _ 10,5 C 10,3 C 10,6 C 48 % 1022,6 hPa #0,0 l/m 1,0 km/h (0 Bft) O - #7:10 h #2,692 mm 352 W/m -0,8 C 10,5 C 8,1 km/h (2 Bft) 99 %
PRIVATE WETTERSTATION BILLIGHEIM-ALLFELD - www.neckar-odenwald-wetter.de - Holger Sonntag